Weather History for KMSS - December, 2011

Change the Weather History Date:

Saturday, December 31, 2011

  Actual Average Record
Temperature  
Mean Temperature 25 °F 16 °F  
Max Temperature 30 °F 26 °F 58 °F (1965)
Min Temperature 19 °F 7 °F -15 °F (1962)
Degree Days  
Heating Degree Days 40 49  
Month to date heating degree days 1060 1330  
Since 1 July heating degree days 2352 3099  
Cooling Degree Days 0 0  
Month to date cooling degree days 0  
Year to date cooling degree days 363  
Moisture  
Dew Point 24 °F    
Average Humidity 92    
Maximum Humidity 100    
Minimum Humidity 84    
Precipitation  
Precipitation 0.01 in 0.07 in 0.39 in (2002)
Month to date precipitation 2.34 2.43  
Year to date precipitation 31.22 34.96  
Sea Level Pressure  
Sea Level Pressure 29.94 in    
Wind  
Wind Speed 6 mph (ENE)    
Max Wind Speed 14 mph    
Max Gust Speed 17 mph    
Visibility 4 miles    
Events Rain    
T = Trace of Precipitation, MM = Missing Value Source: NWS Daily Summary

Daily Weather History Graph

Daily Weather History Graph

Search for Another Location

Airport or City:

Trip Planner

Search our weather history database for the weather conditions in past years. The results will help you decide how hot, cold, wet, or windy it might be!

Date:

Astronomy

Dec. 31, 2011 Rise Set
Actual Time 7:37 AM EST 4:27 PM EST
Civil Twilight 7:03 AM EST 5:01 PM EST
Nautical Twilight 6:26 AM EST 5:38 PM EST
Astronomical Twilight 5:50 AM EST 6:13 PM EST
Moon 11:01 AM EST (12/31) No Moon Set
Length of Visible Light 9h 57m
Length of Day
8h 50m
Waxing Crescent, 45% of the Moon is Illuminated
Dec 31
Waxing Crescent
Jan 1
First Quarter
Jan 9
Full
Jan 16
Last Quarter
Jan 23
New

Hourly Weather History & Observations

Time (EST) Temp. Windchill Dew Point Humidity Pressure Visibility Wind Dir Wind Speed Gust Speed Precip Events Conditions
12:26 AM 19.4 °F 7.2 °F 15.8 °F 86% 29.94 in 9.0 mi ENE 11.5 mph - N/A   Overcast
12:46 AM 19.4 °F 7.2 °F 15.8 °F 86% 29.93 in 9.0 mi ENE 11.5 mph - N/A   Overcast
12:53 AM 19.9 °F 7.9 °F 16.0 °F 85% 29.95 in 9.0 mi ENE 11.5 mph - N/A   Overcast
1:10 AM 19.4 °F 7.2 °F 15.8 °F 86% 29.92 in 9.0 mi East 11.5 mph - N/A   Overcast
1:53 AM 19.9 °F 7.3 °F 16.0 °F 85% 29.92 in 9.0 mi ENE 12.7 mph - N/A   Overcast
2:11 AM 19.4 °F 7.9 °F 17.6 °F 93% 29.89 in 8.0 mi ENE 10.4 mph - N/A   Overcast
2:53 AM 21.0 °F 8.6 °F 18.0 °F 88% 29.90 in 8.0 mi ENE 12.7 mph - N/A   Overcast
3:53 AM 21.9 °F 12.5 °F 19.9 °F 92% 29.89 in 7.0 mi ENE 8.1 mph - N/A   Overcast
4:53 AM 23.0 °F 15.8 °F 21.0 °F 92% 29.88 in 7.0 mi ENE 5.8 mph - N/A   Overcast
5:53 AM 23.0 °F 12.4 °F 19.4 °F 86% 29.84 in 7.0 mi East 10.4 mph - N/A   Overcast
6:36 AM 23.0 °F 11.7 °F 19.4 °F 86% 29.84 in 7.0 mi ENE 11.5 mph - N/A   Overcast
6:53 AM 23.0 °F 13.1 °F 19.4 °F 86% 29.84 in 7.0 mi ENE 9.2 mph - N/A   Overcast
7:02 AM 24.8 °F 15.3 °F 21.2 °F 86% 29.84 in 6.0 mi ENE 9.2 mph - 0.00 in   Overcast
7:53 AM 25.0 °F 16.3 °F 21.9 °F 88% 29.89 in 5.0 mi ENE 8.1 mph - 0.00 in Rain Light Freezing Rain
8:23 AM 24.8 °F 16.1 °F 23.0 °F 93% 29.87 in 4.0 mi ENE 8.1 mph - 0.00 in   Overcast
8:53 AM 26.1 °F 17.6 °F 23.0 °F 88% 29.91 in 5.0 mi ENE 8.1 mph - 0.00 in   Overcast
9:53 AM 26.1 °F 19.4 °F 24.1 °F 92% 29.91 in 4.0 mi East 5.8 mph - N/A   Overcast
10:53 AM 27.0 °F 17.3 °F 24.1 °F 89% 29.90 in 4.0 mi ENE 10.4 mph - N/A   Overcast
11:53 AM 28.0 °F 21.7 °F 24.1 °F 85% 29.88 in 5.0 mi ENE 5.8 mph - N/A   Overcast
12:53 PM 28.0 °F 24.2 °F 26.1 °F 92% 29.88 in 4.0 mi East 3.5 mph - N/A   Overcast
1:53 PM 28.9 °F - 26.1 °F 89% 29.88 in 4.0 mi Calm Calm - N/A   Overcast
2:41 PM 30.2 °F - 26.6 °F 86% 29.88 in 4.0 mi Calm Calm - 0.00 in   Overcast
2:53 PM 30.0 °F - 27.0 °F 88% 29.91 in 4.0 mi Calm Calm - 0.00 in   Overcast
3:02 PM 30.2 °F - 28.4 °F 93% 29.89 in 4.0 mi Calm Calm - N/A   Overcast
3:53 PM 30.0 °F - 27.0 °F 88% 29.93 in 4.0 mi Calm Calm - N/A   Overcast
4:53 PM 30.0 °F - 28.0 °F 92% 29.95 in 5.0 mi Calm Calm - 0.01 in   Overcast
5:48 PM 30.2 °F - 28.4 °F 93% 29.95 in 2.5 mi Calm Calm - N/A   Overcast
5:53 PM 30.0 °F - 28.0 °F 92% 29.97 in 2.0 mi Calm Calm - N/A   Overcast
6:04 PM 30.2 °F - 28.4 °F 93% 29.95 in 1.8 mi Calm Calm - N/A   Overcast
6:15 PM 30.2 °F - 28.4 °F 93% 29.95 in 1.5 mi Calm Calm - N/A   Overcast
6:53 PM 28.9 °F - 28.0 °F 96% 29.99 in 1.8 mi Calm Calm - N/A   Overcast
7:04 PM 28.4 °F - 28.4 °F 100% 29.98 in 2.0 mi Calm Calm - N/A   Overcast
7:45 PM 28.4 °F - 28.4 °F 100% 29.98 in 1.5 mi Calm Calm - N/A   Overcast
7:53 PM 28.9 °F - 28.0 °F 96% 30.01 in 1.0 mi Calm Calm - N/A   Overcast
7:57 PM 28.4 °F - 28.4 °F 100% 29.99 in 0.8 mi Calm Calm - N/A   Overcast
8:41 PM 28.4 °F - 28.4 °F 100% 30.00 in 1.0 mi Calm Calm - N/A   Overcast
8:53 PM 30.0 °F 26.5 °F 28.0 °F 92% 30.04 in 1.5 mi West 3.5 mph - N/A   Overcast
9:05 PM 30.2 °F 25.4 °F 28.4 °F 93% 30.02 in 2.5 mi West 4.6 mph - N/A   Overcast
9:10 PM 30.2 °F 24.3 °F 28.4 °F 93% 30.02 in 3.0 mi WSW 5.8 mph - N/A   Overcast
9:53 PM 30.0 °F 24.1 °F 28.0 °F 92% 30.06 in 3.0 mi West 5.8 mph - N/A   Overcast
10:25 PM 28.4 °F 23.3 °F 26.6 °F 93% 30.04 in 3.0 mi WSW 4.6 mph - N/A   Overcast
10:53 PM 28.9 °F 25.2 °F 27.0 °F 92% 30.05 in 3.0 mi WSW 3.5 mph - N/A   Overcast
11:35 PM 28.4 °F 22.2 °F 26.6 °F 93% 30.05 in 2.5 mi SW 5.8 mph - N/A   Overcast
11:53 PM 28.4 °F 21.2 °F 26.6 °F 93% 30.05 in 3.0 mi WSW 6.9 mph - N/A   Overcast